TimeCDT,TemperatureF,Dew PointF,Humidity,Sea Level PressureIn,VisibilityMPH,Wind Direction,Wind SpeedMPH,Gust SpeedMPH,PrecipitationIn,Events,Conditions,WindDirDegrees,DateUTC
12:15 AM,59.0,49.6,71,29.90,10.0,Calm,Calm,-,N/A,,Clear,0,2013-04-12 05:15:00
12:35 AM,57.4,48.6,72,29.90,10.0,Calm,Calm,-,N/A,,Clear,0,2013-04-12 05:35:00
12:55 AM,57.4,48.7,73,29.90,10.0,Calm,Calm,-,N/A,,Clear,0,2013-04-12 05:55:00
1:15 AM,57.4,50.2,77,29.90,10.0,Calm,Calm,-,N/A,,Clear,0,2013-04-12 06:15:00
1:35 AM,55.2,48.7,79,29.90,10.0,Calm,Calm,-,N/A,,Clear,0,2013-04-12 06:35:00
1:55 AM,54.0,48.6,82,29.89,10.0,ENE,3.5,-,N/A,,Clear,70,2013-04-12 06:55:00
2:15 AM,54.3,49.6,84,29.89,10.0,ENE,4.6,-,N/A,,Clear,70,2013-04-12 07:15:00
2:35 AM,54.5,50.2,85,29.88,10.0,ENE,3.5,-,N/A,,Clear,60,2013-04-12 07:35:00
2:55 AM,55.0,50.5,85,29.88,10.0,Calm,Calm,-,N/A,,Clear,0,2013-04-12 07:55:00
3:15 AM,53.6,49.5,86,29.88,10.0,Calm,Calm,-,N/A,,Clear,0,2013-04-12 08:15:00
3:35 AM,53.1,49.3,87,29.88,10.0,SW,4.6,-,N/A,,Clear,230,2013-04-12 08:35:00
3:55 AM,53.1,49.1,86,29.88,10.0,SW,3.5,-,N/A,,Clear,230,2013-04-12 08:55:00
4:15 AM,53.2,49.3,86,29.88,10.0,SW,3.5,-,N/A,,Clear,220,2013-04-12 09:15:00
4:35 AM,53.1,49.5,88,29.88,10.0,SW,3.5,-,N/A,,Clear,230,2013-04-12 09:35:00
4:55 AM,52.9,49.1,87,29.89,10.0,Calm,Calm,-,N/A,,Clear,0,2013-04-12 09:55:00
5:15 AM,52.7,48.9,87,29.89,10.0,Calm,Calm,-,N/A,,Clear,0,2013-04-12 10:15:00
5:35 AM,52.7,48.9,87,29.89,10.0,Calm,Calm,-,N/A,,Clear,0,2013-04-12 10:35:00
5:55 AM,51.6,48.0,87,29.89,10.0,Calm,Calm,-,N/A,,Clear,0,2013-04-12 10:55:00
6:15 AM,51.3,48.4,90,29.89,10.0,Calm,Calm,-,N/A,,Clear,0,2013-04-12 11:15:00
6:35 AM,50.9,48.0,90,29.89,10.0,Calm,Calm,-,N/A,,Clear,0,2013-04-12 11:35:00
6:55 AM,52.0,48.7,89,29.90,10.0,Calm,Calm,-,N/A,,Clear,0,2013-04-12 11:55:00
7:15 AM,51.1,48.4,90,29.91,10.0,Calm,Calm,-,N/A,,Clear,0,2013-04-12 12:15:00
7:35 AM,52.5,48.2,85,29.92,10.0,Calm,Calm,-,N/A,,Clear,0,2013-04-12 12:35:00
7:55 AM,53.1,50.0,89,29.93,10.0,Calm,Calm,-,N/A,,Clear,0,2013-04-12 12:55:00
8:15 AM,55.6,52.5,89,29.93,10.0,NNE,5.8,-,N/A,,Clear,30,2013-04-12 13:15:00
8:35 AM,58.1,54.5,88,29.93,10.0,ENE,4.6,-,N/A,,Clear,60,2013-04-12 13:35:00
8:55 AM,61.2,56.7,85,29.94,10.0,NE,5.8,-,N/A,,Clear,50,2013-04-12 13:55:00
9:15 AM,64.4,58.1,80,29.94,10.0,ENE,5.8,-,N/A,,Clear,70,2013-04-12 14:15:00
9:35 AM,68.0,59.0,73,29.95,10.0,ENE,6.9,-,N/A,,Clear,60,2013-04-12 14:35:00
9:55 AM,70.3,59.9,69,29.95,10.0,East,8.1,-,N/A,,Clear,80,2013-04-12 14:55:00
10:15 AM,72.3,60.4,66,29.96,10.0,East,10.4,-,N/A,,Clear,100,2013-04-12 15:15:00
10:35 AM,73.8,60.1,62,29.96,10.0,East,10.4,-,N/A,,Scattered Clouds,90,2013-04-12 15:35:00
10:55 AM,74.5,59.9,60,29.95,10.0,ENE,8.1,-,N/A,,Clear,70,2013-04-12 15:55:00
11:15 AM,75.6,58.8,56,29.95,10.0,East,6.9,-,N/A,,Clear,90,2013-04-12 16:15:00
11:55 AM,78.1,57.4,49,29.94,10.0,East,9.2,-,N/A,,Clear,90,2013-04-12 16:55:00
12:15 PM,78.4,56.7,47,29.94,10.0,East,5.8,16.1,N/A,,Clear,100,2013-04-12 17:15:00
12:35 PM,80.4,57.0,45,29.93,10.0,East,10.4,-,N/A,,Clear,80,2013-04-12 17:35:00
12:55 PM,81.9,58.1,44,29.92,10.0,ENE,5.8,-,N/A,,Clear,60,2013-04-12 17:55:00
1:15 PM,82.4,56.8,42,29.91,10.0,NNE,9.2,17.3,N/A,,Clear,30,2013-04-12 18:15:00
1:35 PM,82.8,56.5,40,29.91,10.0,East,12.7,16.1,N/A,,Clear,80,2013-04-12 18:35:00
1:55 PM,84.7,56.5,38,29.90,10.0,ENE,13.8,17.3,N/A,,Clear,70,2013-04-12 18:55:00
2:15 PM,85.1,53.2,33,29.89,10.0,ESE,10.4,17.3,N/A,,Clear,120,2013-04-12 19:15:00
2:35 PM,84.7,53.1,34,29.88,10.0,East,10.4,20.7,N/A,,Clear,100,2013-04-12 19:35:00
2:55 PM,84.7,53.4,34,29.88,10.0,East,15.0,-,N/A,,Clear,90,2013-04-12 19:55:00
3:15 PM,85.1,53.4,34,29.87,10.0,East,12.7,20.7,N/A,,Clear,100,2013-04-12 20:15:00
3:35 PM,84.9,53.1,33,29.86,10.0,ESE,12.7,20.7,N/A,,Clear,120,2013-04-12 20:35:00
3:55 PM,85.3,53.4,33,29.85,10.0,East,13.8,19.6,N/A,,Clear,100,2013-04-12 20:55:00
4:15 PM,84.0,52.9,34,29.85,10.0,East,15.0,20.7,N/A,,Clear,90,2013-04-12 21:15:00
4:35 PM,84.4,52.7,33,29.84,10.0,ESE,12.7,20.7,N/A,,Clear,110,2013-04-12 21:35:00
5:15 PM,81.0,52.9,38,29.84,10.0,ESE,11.5,21.9,N/A,,Clear,110,2013-04-12 22:15:00
5:35 PM,79.9,55.0,42,29.84,10.0,ESE,15.0,19.6,N/A,,Clear,110,2013-04-12 22:35:00
5:55 PM,81.0,55.2,41,29.85,10.0,ESE,10.4,18.4,N/A,,Clear,110,2013-04-12 22:55:00
6:15 PM,78.6,56.5,46,29.85,10.0,ESE,13.8,21.9,N/A,,Clear,120,2013-04-12 23:15:00
6:35 PM,78.1,59.0,52,29.86,10.0,ESE,11.5,23.0,N/A,,Clear,120,2013-04-12 23:35:00
6:55 PM,77.9,60.3,54,29.86,10.0,East,12.7,19.6,N/A,,Clear,100,2013-04-12 23:55:00
7:15 PM,76.6,61.0,58,29.86,10.0,ESE,13.8,19.6,N/A,,Clear,120,2013-04-13 00:15:00
7:35 PM,75.2,61.2,62,29.87,10.0,ESE,11.5,23.0,N/A,,Clear,110,2013-04-13 00:35:00
7:55 PM,73.8,61.7,66,29.87,10.0,ESE,13.8,20.7,N/A,,Clear,110,2013-04-13 00:55:00
8:15 PM,72.9,61.7,68,29.88,10.0,ESE,12.7,17.3,N/A,,Clear,110,2013-04-13 01:15:00
8:35 PM,72.1,62.1,70,29.88,10.0,ESE,11.5,18.4,N/A,,Clear,110,2013-04-13 01:35:00
9:15 PM,71.1,63.1,76,29.90,10.0,ESE,12.7,-,N/A,,Clear,110,2013-04-13 02:15:00
9:35 PM,70.7,63.3,77,29.90,10.0,ESE,6.9,-,N/A,,Clear,110,2013-04-13 02:35:00
9:55 PM,70.0,63.5,80,29.91,10.0,ESE,5.8,-,N/A,,Clear,120,2013-04-13 02:55:00
10:15 PM,69.4,63.5,81,29.91,10.0,ESE,6.9,-,N/A,,Clear,120,2013-04-13 03:15:00
10:35 PM,68.9,63.5,83,29.92,10.0,East,4.6,-,N/A,,Clear,100,2013-04-13 03:35:00
10:55 PM,68.2,63.5,85,29.92,10.0,East,4.6,-,N/A,,Clear,100,2013-04-13 03:55:00
11:15 PM,67.6,63.5,87,29.93,10.0,East,5.8,-,N/A,,Clear,100,2013-04-13 04:15:00
11:35 PM,67.1,63.5,88,29.93,10.0,East,4.6,-,N/A,,Clear,100,2013-04-13 04:35:00
11:55 PM,66.6,63.3,89,29.93,10.0,East,4.6,-,N/A,,Clear,100,2013-04-13 04:55:00